Location: Härggis
(46.9540°N, 8.4897°E)
Time: 03:09:59
(UTC+00:00)

Cosmos 1656 Rocket - Pass Details

Date: 27 May 2022
Orbit: 796 x 845 km, 71.1° (Epoch: 26 June)

Event Time Altitude Azimuth Distance (km) Brightness Sun altitude
Rises 01:39:12 0° 335° (NNW) 3,314 7.3 -15.2°
Reaches altitude 10° 01:41:39 10° 339° (NNW) 2,378 6.5 -15.0°
Maximum altitude 01:47:02 61° 60° (ENE) 902 4.1 -14.5°
Drops below altitude 10° 01:52:23 10° 141° (SE) 2,370 5.9 -13.9°
Sets 01:54:49 0° 144° (SE) 3,301 6.6 -13.7°
